Cherokee, IA

9:46 AM CST on February 24, 2017 (GMT -0600)
Cherokee Municipal

Weather History for KCKP - September, 2013

Change the Weather History Date:

Friday, September 13, 2013

  Actual Average Record
Temperature  
Mean Temperature 62 °F -  
Max Temperature 76 °F 74 °F 92 °F (1984)
Min Temperature 48 °F 51 °F 32 °F (2014)
Degree Days  
Heating Degree Days 3    
Growing Degree Days 12 (Base 50)    
Moisture  
Dew Point 46 °F    
Average Humidity 62    
Maximum Humidity 94    
Minimum Humidity 27    
Precipitation  
Precipitation 0.00 in - - ()
Sea Level Pressure  
Sea Level Pressure 30.19 in    
Wind  
Wind Speed 2 mph (East)    
Max Wind Speed 7 mph    
Max Gust Speed -    
Visibility 10 miles    
Events      
Averages and records for this station are not official NWS values.
T = Trace of Precipitation, MM = Missing Value Source: NWS Daily Summary

Daily Weather History Graph

Daily Weather History Graph

Search for Another Location

Airport or City:

Trip Planner

Search our weather history database for the weather conditions in past years. The results will help you decide how hot, cold, wet, or windy it might be!

Date:

Astronomy

Sep. 13, 2013 Rise Set
Actual Time 7:00 AM CDT 7:35 PM CDT
Civil Twilight 6:31 AM CDT 8:03 PM CDT
Nautical Twilight 5:58 AM CDT 8:37 PM CDT
Astronomical Twilight 5:23 AM CDT 9:11 PM CDT
Moon 3:31 PM CDT (9/13) 12:24 AM CDT (9/13)
Length of Visible Light 13h 31m
Length of Day
12h 34m
First Quarter, 61% of the Moon is Illuminated
Sep 13
First Quarter
Sep 19
Full
Sep 26
Last Quarter
Oct 4
New
Oct 11
First Quarter

Hourly Weather History & Observations

Time (CDT) Temp. Dew Point Humidity Pressure Visibility Wind Dir Wind Speed Gust Speed Precip Events Conditions
12:15 AM 57.2 °F 51.4 °F 81% 30.23 in 10.0 mi NNE 3.5 mph - N/A   Clear
12:35 AM 56.3 °F 51.3 °F 83% 30.23 in 10.0 mi Calm Calm - N/A   Clear
12:55 AM 52.3 °F 48.0 °F 85% 30.23 in 10.0 mi Calm Calm - N/A   Clear
1:15 AM 53.8 °F 50.4 °F 88% 30.23 in 10.0 mi Calm Calm - N/A   Clear
1:35 AM 54.0 °F 50.4 °F 88% 30.23 in 10.0 mi Calm Calm - N/A   Clear
1:55 AM 54.3 °F 50.9 °F 88% 30.23 in 10.0 mi NNE 4.6 mph - N/A   Clear
2:15 AM 53.6 °F 50.5 °F 89% 30.23 in 10.0 mi NNE 3.5 mph - N/A   Clear
2:35 AM 51.8 °F 48.9 °F 90% 30.24 in 10.0 mi Calm Calm - N/A   Clear
2:55 AM 53.1 °F 50.5 °F 91% 30.24 in 10.0 mi Calm Calm - N/A   Clear
3:15 AM 52.0 °F 49.5 °F 91% 30.24 in 10.0 mi Calm Calm - N/A   Clear
3:35 AM 50.7 °F 48.0 °F 90% 30.24 in 10.0 mi Calm Calm - N/A   Clear
3:55 AM 52.0 °F 49.8 °F 92% 30.24 in 10.0 mi NE 4.6 mph - N/A   Clear
4:15 AM 51.8 °F 49.5 °F 92% 30.24 in 10.0 mi Calm Calm - N/A   Clear
4:35 AM 51.3 °F 49.1 °F 92% 30.24 in 10.0 mi NE 3.5 mph - N/A   Clear
4:55 AM 50.9 °F 48.7 °F 92% 30.24 in 10.0 mi Calm Calm - N/A   Clear
5:15 AM 49.3 °F 47.3 °F 93% 30.25 in 10.0 mi Calm Calm - N/A   Clear
5:35 AM 49.8 °F 47.8 °F 93% 30.25 in 10.0 mi Calm Calm - N/A   Clear
5:55 AM 49.3 °F 47.3 °F 93% 30.25 in 10.0 mi Calm Calm - N/A   Clear
6:15 AM 48.9 °F 46.9 °F 93% 30.25 in 10.0 mi Calm Calm - N/A   Clear
6:35 AM 48.7 °F 46.8 °F 93% 30.25 in 10.0 mi NNE 3.5 mph - N/A   Clear
6:55 AM 48.4 °F 46.4 °F 93% 30.25 in 10.0 mi Calm Calm - N/A   Clear
7:15 AM 48.2 °F 46.4 °F 93% 30.26 in 10.0 mi NNE 3.5 mph - N/A   Clear
7:35 AM 48.2 °F 46.4 °F 93% 30.26 in 10.0 mi Calm Calm - N/A   Clear
7:55 AM 49.3 °F 47.5 °F 94% 30.26 in 7.0 mi Calm Calm - N/A   Clear
8:15 AM 50.7 °F 48.6 °F 92% 30.26 in 10.0 mi NE 3.5 mph - N/A   Clear
8:35 AM 52.7 °F 49.1 °F 88% 30.26 in 10.0 mi Calm Calm - N/A   Clear
8:55 AM 55.2 °F 50.0 °F 83% 30.26 in 10.0 mi Calm Calm - N/A   Clear
9:15 AM 58.1 °F 51.1 °F 77% 30.27 in 10.0 mi Calm Calm - N/A   Clear
9:35 AM 61.9 °F 49.8 °F 65% 30.27 in 10.0 mi ENE 4.6 mph - N/A   Clear
9:55 AM 64.0 °F 50.2 °F 61% 30.26 in 10.0 mi East 3.5 mph - N/A   Clear
10:15 AM 66.2 °F 48.7 °F 53% 30.27 in 10.0 mi Calm Calm - N/A   Clear
10:35 AM 67.8 °F 47.3 °F 48% 30.26 in 10.0 mi SSE 4.6 mph - N/A   Clear
10:55 AM 68.2 °F 45.9 °F 45% 30.26 in 10.0 mi SSE 5.8 mph - N/A   Clear
11:15 AM 68.9 °F 44.6 °F 42% 30.26 in 10.0 mi ESE 3.5 mph - N/A   Clear
11:35 AM 70.3 °F 42.6 °F 37% 30.25 in 10.0 mi East 3.5 mph - N/A   Clear
11:55 AM 70.5 °F 42.1 °F 36% 30.24 in 10.0 mi East 3.5 mph - N/A   Clear
12:15 PM 71.6 °F 41.7 °F 34% 30.23 in 10.0 mi ESE 3.5 mph - N/A   Clear
12:35 PM 73.0 °F 41.5 °F 32% 30.23 in 10.0 mi East 4.6 mph - N/A   Clear
12:55 PM 72.1 °F 41.0 °F 32% 30.22 in 10.0 mi Calm Calm - N/A   Clear
1:15 PM 73.8 °F 41.0 °F 31% 30.21 in 10.0 mi SSW 3.5 mph - N/A   Clear
1:35 PM 73.6 °F 41.2 °F 31% 30.19 in 10.0 mi SE 4.6 mph - N/A   Clear
1:55 PM 73.8 °F 41.0 °F 31% 30.19 in 10.0 mi SSE 3.5 mph - N/A   Clear
2:15 PM 74.1 °F 41.0 °F 30% 30.18 in 10.0 mi North 3.5 mph - N/A   Clear
2:35 PM 75.2 °F 40.5 °F 29% 30.18 in 10.0 mi ESE 5.8 mph - N/A   Clear
2:55 PM 74.7 °F 39.6 °F 28% 30.17 in 10.0 mi Calm Calm - N/A   Clear
3:15 PM 75.4 °F 39.9 °F 28% 30.16 in 10.0 mi ENE 5.8 mph - N/A   Clear
3:35 PM 75.6 °F 40.3 °F 28% 30.15 in 10.0 mi East 4.6 mph - N/A   Clear
3:55 PM 75.6 °F 40.1 °F 28% 30.15 in 10.0 mi Calm Calm - N/A   Clear
4:15 PM 75.9 °F 40.1 °F 28% 30.14 in 10.0 mi North 3.5 mph - N/A   Clear
4:35 PM 76.1 °F 41.2 °F 29% 30.14 in 10.0 mi Calm Calm - N/A   Clear
4:55 PM 76.1 °F 40.1 °F 27% 30.13 in 10.0 mi East 3.5 mph - N/A   Clear
5:15 PM 76.1 °F 40.3 °F 28% 30.13 in 10.0 mi Calm Calm - N/A   Clear
5:35 PM 75.6 °F 40.1 °F 28% 30.13 in 10.0 mi ESE 3.5 mph - N/A   Clear
5:55 PM 75.4 °F 39.6 °F 27% 30.12 in 10.0 mi SE 5.8 mph - N/A   Clear
6:15 PM 75.2 °F 40.6 °F 29% 30.12 in 10.0 mi Calm Calm - N/A   Clear
6:35 PM 74.3 °F 41.2 °F 30% 30.11 in 10.0 mi East 4.6 mph - N/A   Clear
6:55 PM 72.9 °F 43.0 °F 34% 30.11 in 10.0 mi ENE 4.6 mph - N/A   Clear
7:15 PM 70.2 °F 47.5 °F 44% 30.11 in 10.0 mi Calm Calm - N/A   Clear
7:35 PM 65.1 °F 48.7 °F 55% 30.10 in 10.0 mi East 5.8 mph - N/A   Clear
7:55 PM 63.9 °F 47.7 °F 56% 30.10 in 10.0 mi East 5.8 mph - N/A   Clear
8:15 PM 62.6 °F 47.8 °F 58% 30.11 in 10.0 mi Calm Calm - N/A   Clear
8:35 PM 62.4 °F 47.5 °F 58% 30.10 in 10.0 mi East 5.8 mph - N/A   Clear
8:55 PM 61.0 °F 47.3 °F 61% 30.10 in 10.0 mi East 4.6 mph - N/A   Clear
9:15 PM 59.9 °F 47.3 °F 63% 30.10 in 10.0 mi East 6.9 mph - N/A   Clear
9:35 PM 58.5 °F 47.3 °F 66% 30.10 in 10.0 mi ESE 4.6 mph - N/A   Clear
9:55 PM 57.7 °F 47.3 °F 68% 30.10 in 10.0 mi ESE 3.5 mph - N/A   Clear
10:15 PM 57.0 °F 47.3 °F 70% 30.10 in 10.0 mi Calm Calm - N/A   Clear
10:35 PM 54.3 °F 46.6 °F 75% 30.10 in 10.0 mi Calm Calm - N/A   Clear
10:55 PM 54.5 °F 46.6 °F 75% 30.10 in 10.0 mi Calm Calm - N/A   Clear
11:15 PM 57.7 °F 46.9 °F 67% 30.10 in 10.0 mi ESE 5.8 mph - N/A   Clear
11:35 PM 57.9 °F 46.8 °F 66% 30.09 in 10.0 mi SE 4.6 mph - N/A   Clear
11:55 PM 56.5 °F 46.6 °F 69% 30.09 in 10.0 mi South 3.5 mph - N/A   Clear